WZZ91 EPKK-ENGM

Flight info

Callsign WZZ91
Flight time 1h 52m
Altitude 38000
Route LUMVE L619 NUDRO DCT XIDNA DCT POKEN DCT SABAK DCT LUNIP
Aircraft A20N/M-SDE3FGHIRWY/S

Departure

Time 2026-05-05 17:03
Airport Kraków John Paul II International Airport (EPKK)

Arrival

Time 2026-05-05 18:55
Airport Oslo-Gardermoen International Airport (ENGM)
Time Latitude Longitude Altitude Speed Heading
2026-05-05 16:41 50.07501 19.80272 800 ft 0 kts 168°
2026-05-05 16:57 50.07497 19.80274 800 ft 2 kts 168°
2026-05-05 16:57 50.07473 19.80281 800 ft 5 kts 168°
2026-05-05 16:58 50.07447 19.80317 800 ft 6 kts 105°
2026-05-05 16:58 50.07466 19.80374 800 ft 7 kts 27°
2026-05-05 16:58 50.07525 19.80402 800 ft 10 kts 15°
2026-05-05 16:58 50.07605 19.80414 800 ft 13 kts 349°
2026-05-05 16:59 50.07701 19.80385 800 ft 16 kts 347°
2026-05-05 16:59 50.07813 19.80346 800 ft 13 kts 348°
2026-05-05 16:59 50.07837 19.80339 800 ft 2 kts 348°
2026-05-05 16:59 50.07839 19.80338 800 ft 0 kts 348°
2026-05-05 17:00 50.07841 19.80337 800 ft 2 kts 348°
2026-05-05 17:00 50.07863 19.80330 800 ft 5 kts 348°
2026-05-05 17:01 50.07907 19.80315 800 ft 8 kts 348°
2026-05-05 17:01 50.07976 19.80292 799 ft 10 kts 347°
2026-05-05 17:01 50.08016 19.80229 800 ft 8 kts 272°
2026-05-05 17:01 50.08015 19.80217 800 ft 1 kts 257°
2026-05-05 17:02 50.08014 19.80214 800 ft 0 kts 257°
2026-05-05 17:02 50.08009 19.80177 800 ft 18 kts 257°
2026-05-05 17:02 50.07914 19.79522 800 ft 103 kts 259°
2026-05-05 17:02 50.07707 19.78084 851 ft 161 kts 256°
2026-05-05 17:03 50.07456 19.76366 1562 ft 162 kts 255°
2026-05-05 17:03 50.07208 19.74684 2450 ft 160 kts 255°
2026-05-05 17:03 50.06958 19.72927 3241 ft 176 kts 255°
2026-05-05 17:03 50.06680 19.70944 3867 ft 198 kts 256°
2026-05-05 17:04 50.06469 19.68737 4450 ft 214 kts 270°
2026-05-05 17:04 50.06951 19.66443 4704 ft 238 kts 297°
2026-05-05 17:04 50.07940 19.64281 5203 ft 250 kts 305°
2026-05-05 17:04 50.09046 19.62190 6011 ft 250 kts 306°
2026-05-05 17:05 50.10152 19.60080 6831 ft 253 kts 305°
2026-05-05 17:05 50.11240 19.57919 7695 ft 254 kts 304°
2026-05-05 17:05 50.12320 19.55697 8515 ft 259 kts 303°
2026-05-05 17:05 50.13404 19.53423 9230 ft 269 kts 303°
2026-05-05 17:06 50.14553 19.50981 9773 ft 286 kts 303°
2026-05-05 17:06 50.15756 19.48429 10392 ft 301 kts 303°
2026-05-05 17:06 50.17045 19.45690 10724 ft 325 kts 303°
2026-05-05 17:06 50.18417 19.42778 11245 ft 339 kts 303°
2026-05-05 17:07 50.19810 19.39831 12058 ft 343 kts 303°
2026-05-05 17:07 50.21236 19.36811 12900 ft 347 kts 303°
2026-05-05 17:07 50.22677 19.33753 13718 ft 351 kts 302°
2026-05-05 17:07 50.24124 19.30674 14493 ft 353 kts 302°
2026-05-05 17:08 50.25585 19.27560 15234 ft 357 kts 303°
2026-05-05 17:08 50.27058 19.24413 15973 ft 360 kts 303°
2026-05-05 17:08 50.28546 19.21231 16713 ft 363 kts 303°
2026-05-05 17:08 50.30041 19.18031 17447 ft 366 kts 303°
2026-05-05 17:09 50.31551 19.14795 18161 ft 370 kts 303°
2026-05-05 17:09 50.33075 19.11522 18787 ft 373 kts 303°
2026-05-05 17:09 50.34591 19.08263 19394 ft 376 kts 303°
2026-05-05 17:09 50.36141 19.04927 20012 ft 380 kts 303°
2026-05-05 17:10 50.37721 19.01523 20616 ft 383 kts 303°
2026-05-05 17:10 50.39280 18.98159 21190 ft 387 kts 304°
2026-05-05 17:10 50.40870 18.94724 21762 ft 391 kts 304°
2026-05-05 17:10 50.42475 18.91254 22341 ft 395 kts 304°
2026-05-05 17:11 50.44095 18.87746 22920 ft 399 kts 304°
2026-05-05 17:11 50.45727 18.84210 23478 ft 402 kts 304°
2026-05-05 17:11 50.47369 18.80646 23977 ft 404 kts 304°
2026-05-05 17:11 50.49023 18.77052 24487 ft 406 kts 304°
2026-05-05 17:12 50.50685 18.73437 24971 ft 408 kts 304°
2026-05-05 17:12 50.52343 18.69856 25438 ft 411 kts 307°
2026-05-05 17:12 50.54359 18.66633 25890 ft 415 kts 317°
2026-05-05 17:12 50.56528 18.63610 26347 ft 417 kts 317°
2026-05-05 17:13 50.58714 18.60571 26794 ft 420 kts 317°
2026-05-05 17:13 50.60911 18.57513 27226 ft 422 kts 317°
2026-05-05 17:13 50.63113 18.54439 27654 ft 424 kts 317°
2026-05-05 17:13 50.65326 18.51341 28068 ft 426 kts 316°
2026-05-05 17:14 50.67550 18.48222 28458 ft 428 kts 316°
2026-05-05 17:14 50.69755 18.45122 28844 ft 430 kts 316°
2026-05-05 17:14 50.72074 18.42112 29200 ft 434 kts 324°
2026-05-05 17:14 50.74716 18.39730 29560 ft 438 kts 329°
2026-05-05 17:15 50.77407 18.37458 29922 ft 440 kts 330°
2026-05-05 17:15 50.80123 18.35174 30243 ft 442 kts 329°
2026-05-05 17:15 50.82841 18.32883 30565 ft 444 kts 329°
2026-05-05 17:15 50.85573 18.30572 30906 ft 445 kts 329°
2026-05-05 17:16 50.88299 18.28262 31311 ft 444 kts 329°
2026-05-05 17:16 50.91020 18.25950 31751 ft 443 kts 329°
2026-05-05 17:16 50.93721 18.23652 32199 ft 441 kts 329°
2026-05-05 17:16 50.96427 18.21346 32627 ft 439 kts 329°
2026-05-05 17:17 50.99078 18.19082 33049 ft 438 kts 329°
2026-05-05 17:17 51.01757 18.16790 33458 ft 436 kts 329°
2026-05-05 17:17 51.04420 18.14508 33852 ft 434 kts 329°
2026-05-05 17:17 51.07088 18.12218 34174 ft 433 kts 329°
2026-05-05 17:18 51.09738 18.09940 34459 ft 433 kts 329°
2026-05-05 17:18 51.12396 18.07651 34732 ft 433 kts 328°
2026-05-05 17:18 51.15039 18.05374 34992 ft 433 kts 328°
2026-05-05 17:18 51.17697 18.03081 35267 ft 433 kts 328°
2026-05-05 17:19 51.20308 18.00825 35517 ft 432 kts 328°
2026-05-05 17:19 51.22954 17.98536 35757 ft 433 kts 328°
2026-05-05 17:19 51.25600 17.96244 35998 ft 432 kts 328°
2026-05-05 17:19 51.28245 17.93950 36235 ft 432 kts 328°
2026-05-05 17:20 51.30896 17.91648 36466 ft 432 kts 328°
2026-05-05 17:20 51.33542 17.89346 36686 ft 432 kts 328°
2026-05-05 17:20 51.36188 17.87042 36904 ft 432 kts 328°
2026-05-05 17:20 51.38825 17.84742 37129 ft 432 kts 328°
2026-05-05 17:21 51.41467 17.82436 37335 ft 432 kts 328°
2026-05-05 17:21 51.44111 17.80124 37537 ft 432 kts 328°
2026-05-05 17:21 51.46748 17.77815 37753 ft 432 kts 328°
2026-05-05 17:22 51.52016 17.73194 37784 ft 430 kts 328°
2026-05-05 17:22 51.57263 17.68579 37782 ft 430 kts 328°
2026-05-05 17:23 51.62488 17.63971 37787 ft 430 kts 328°
2026-05-05 17:23 51.67749 17.59319 37791 ft 430 kts 327°
2026-05-05 17:24 51.72996 17.54667 37799 ft 430 kts 327°
2026-05-05 17:24 51.78212 17.50030 37796 ft 430 kts 327°
2026-05-05 17:25 51.83443 17.45368 37789 ft 429 kts 327°
2026-05-05 17:25 51.88679 17.40687 37795 ft 429 kts 327°
2026-05-05 17:26 51.93906 17.36004 37808 ft 429 kts 327°
2026-05-05 17:26 51.99131 17.31308 37800 ft 429 kts 327°
2026-05-05 17:27 52.04348 17.26608 37807 ft 428 kts 327°
2026-05-05 17:27 52.09558 17.21901 37806 ft 428 kts 327°
2026-05-05 17:28 52.14736 17.17211 37814 ft 428 kts 327°
2026-05-05 17:28 52.19947 17.12478 37820 ft 428 kts 327°
2026-05-05 17:29 52.25150 17.07738 37823 ft 428 kts 327°
2026-05-05 17:29 52.30319 17.03018 37826 ft 428 kts 326°
2026-05-05 17:30 52.35523 16.98253 37828 ft 428 kts 326°
2026-05-05 17:30 52.40711 16.93490 37826 ft 428 kts 326°
2026-05-05 17:31 52.45916 16.88696 37829 ft 428 kts 326°
2026-05-05 17:31 52.51102 16.83910 37824 ft 428 kts 326°
2026-05-05 17:32 52.56260 16.79135 37830 ft 430 kts 326°
2026-05-05 17:32 52.61469 16.74299 37828 ft 429 kts 326°
2026-05-05 17:33 52.66680 16.69448 37833 ft 429 kts 326°
2026-05-05 17:33 52.71874 16.64600 37835 ft 429 kts 326°
2026-05-05 17:34 52.77071 16.59736 37842 ft 429 kts 325°
2026-05-05 17:34 52.82229 16.54895 37844 ft 429 kts 325°
2026-05-05 17:35 52.87425 16.50005 37840 ft 429 kts 325°
2026-05-05 17:35 52.92611 16.45110 37849 ft 429 kts 325°
2026-05-05 17:36 52.97799 16.40199 37848 ft 429 kts 325°
2026-05-05 17:36 53.02948 16.35313 37844 ft 429 kts 325°
2026-05-05 17:37 53.08129 16.30381 37848 ft 429 kts 325°
2026-05-05 17:37 53.13314 16.25431 37862 ft 430 kts 325°
2026-05-05 17:38 53.18506 16.20462 37860 ft 430 kts 325°
2026-05-05 17:38 53.22823 16.16319 37865 ft 430 kts 325°
2026-05-05 17:39 53.28012 16.11327 37870 ft 431 kts 325°
2026-05-05 17:39 53.33211 16.06311 37878 ft 431 kts 325°
2026-05-05 17:40 53.38409 16.01281 37879 ft 431 kts 324°
2026-05-05 17:40 53.43606 15.96239 37882 ft 432 kts 324°
2026-05-05 17:41 53.48808 15.91177 37880 ft 432 kts 324°
2026-05-05 17:41 53.53998 15.86112 37886 ft 432 kts 324°
2026-05-05 17:42 53.59171 15.81050 37884 ft 432 kts 324°
2026-05-05 17:42 53.64369 15.75948 37887 ft 432 kts 324°
2026-05-05 17:43 53.69564 15.70836 37887 ft 432 kts 324°
2026-05-05 17:43 53.74724 15.65742 37885 ft 432 kts 324°
2026-05-05 17:44 53.79913 15.60605 37890 ft 432 kts 324°
2026-05-05 17:44 53.85102 15.55453 37889 ft 433 kts 323°
2026-05-05 17:45 53.90296 15.50281 37881 ft 432 kts 323°
2026-05-05 17:45 53.95481 15.45102 37892 ft 432 kts 323°
2026-05-05 17:46 54.00663 15.39912 37893 ft 433 kts 323°
2026-05-05 17:46 54.05859 15.34693 37898 ft 433 kts 323°
2026-05-05 17:47 54.11011 15.29503 37897 ft 433 kts 323°
2026-05-05 17:47 54.16188 15.24272 37904 ft 433 kts 323°
2026-05-05 17:48 54.21371 15.19019 37904 ft 433 kts 323°
2026-05-05 17:48 54.26546 15.13760 37910 ft 433 kts 323°
2026-05-05 17:49 54.31729 15.08476 37911 ft 433 kts 323°
2026-05-05 17:49 54.36896 15.03194 37919 ft 432 kts 323°
2026-05-05 17:50 54.42028 14.97931 37918 ft 432 kts 323°
2026-05-05 17:50 54.47199 14.92612 37913 ft 432 kts 323°
2026-05-05 17:51 54.52351 14.87297 37913 ft 432 kts 323°
2026-05-05 17:51 54.57504 14.81964 37917 ft 431 kts 323°
2026-05-05 17:52 54.62644 14.76629 37914 ft 431 kts 323°
2026-05-05 17:52 54.67789 14.71278 37914 ft 431 kts 323°
2026-05-05 17:53 54.72894 14.65956 37912 ft 431 kts 323°
2026-05-05 17:53 54.78024 14.60593 37911 ft 430 kts 323°
2026-05-05 17:54 54.82902 14.55653 37908 ft 434 kts 329°
2026-05-05 17:54 54.88397 14.51293 37907 ft 435 kts 330°
2026-05-05 17:55 54.93920 14.46946 37904 ft 435 kts 329°
2026-05-05 17:55 54.99437 14.42571 37903 ft 435 kts 329°
2026-05-05 17:56 55.04945 14.38182 37902 ft 435 kts 329°
2026-05-05 17:56 55.10426 14.33796 37906 ft 436 kts 329°
2026-05-05 17:57 55.15943 14.29368 37904 ft 436 kts 329°
2026-05-05 17:57 55.21466 14.24921 37906 ft 437 kts 329°
2026-05-05 17:58 55.26992 14.20459 37905 ft 437 kts 329°
2026-05-05 17:58 55.32530 14.15972 37905 ft 438 kts 329°
2026-05-05 17:59 55.38046 14.11489 37907 ft 438 kts 329°
2026-05-05 17:59 55.43614 14.06951 37895 ft 439 kts 329°
2026-05-05 18:00 55.49127 14.02443 37892 ft 439 kts 329°
2026-05-05 18:00 55.54676 13.97891 37901 ft 440 kts 329°
2026-05-05 18:01 55.60233 13.93319 37922 ft 440 kts 329°
2026-05-05 18:01 55.65783 13.88738 37930 ft 440 kts 329°
2026-05-05 18:02 55.71342 13.84135 37923 ft 440 kts 329°
2026-05-05 18:02 55.76861 13.79551 37926 ft 441 kts 329°
2026-05-05 18:03 55.82406 13.74931 37923 ft 440 kts 329°
2026-05-05 18:03 55.87953 13.70295 37926 ft 440 kts 329°
2026-05-05 18:04 55.93493 13.65651 37926 ft 439 kts 329°
2026-05-05 18:04 55.99029 13.60995 37932 ft 439 kts 329°
2026-05-05 18:05 56.04545 13.56341 37936 ft 438 kts 329°
2026-05-05 18:05 56.10022 13.51705 37934 ft 438 kts 329°
2026-05-05 18:06 56.15524 13.47033 37931 ft 437 kts 329°
2026-05-05 18:06 56.21024 13.42348 37930 ft 437 kts 328°
2026-05-05 18:07 56.26521 13.37650 37924 ft 437 kts 328°
2026-05-05 18:07 56.32007 13.32947 37931 ft 436 kts 328°
2026-05-05 18:08 56.37487 13.28233 37925 ft 436 kts 328°
2026-05-05 18:08 56.42971 13.23501 37926 ft 436 kts 328°
2026-05-05 18:09 56.48413 13.18790 37924 ft 437 kts 328°
2026-05-05 18:09 56.53901 13.14024 37928 ft 437 kts 328°
2026-05-05 18:10 56.59390 13.09242 37937 ft 437 kts 328°
2026-05-05 18:10 56.64873 13.04449 37938 ft 437 kts 328°
2026-05-05 18:11 56.70365 12.99633 37937 ft 438 kts 328°
2026-05-05 18:11 56.75819 12.94835 37944 ft 438 kts 328°
2026-05-05 18:12 56.81309 12.89990 37944 ft 438 kts 328°
2026-05-05 18:12 56.86797 12.85130 37946 ft 438 kts 328°
2026-05-05 18:13 56.92291 12.80249 37949 ft 438 kts 328°
2026-05-05 18:13 56.97771 12.75365 37947 ft 438 kts 328°
2026-05-05 18:14 57.03249 12.70465 37945 ft 437 kts 328°
2026-05-05 18:14 57.08721 12.65555 37949 ft 437 kts 328°
2026-05-05 18:15 57.14187 12.60635 37945 ft 437 kts 327°
2026-05-05 18:15 57.19604 12.55742 37949 ft 436 kts 327°
2026-05-05 18:16 57.25051 12.50806 37946 ft 436 kts 327°
2026-05-05 18:16 57.30490 12.45862 37948 ft 435 kts 327°
2026-05-05 18:17 57.35922 12.40907 37941 ft 435 kts 327°
2026-05-05 18:17 57.41345 12.35943 37941 ft 434 kts 327°
2026-05-05 18:18 57.46733 12.30995 37942 ft 434 kts 327°
2026-05-05 18:18 57.52146 12.26008 37941 ft 434 kts 327°
2026-05-05 18:19 57.57554 12.21009 37928 ft 434 kts 327°
2026-05-05 18:19 57.62953 12.16002 37933 ft 433 kts 327°
2026-05-05 18:20 57.68352 12.10977 37937 ft 433 kts 327°
2026-05-05 18:20 57.73757 12.05930 37962 ft 433 kts 327°
2026-05-05 18:21 57.79113 12.00913 37962 ft 433 kts 327°
2026-05-05 18:21 57.84512 11.95838 37963 ft 433 kts 327°
2026-05-05 18:22 57.89901 11.90755 37962 ft 434 kts 327°
2026-05-05 18:22 57.95296 11.85650 37957 ft 434 kts 327°
2026-05-05 18:23 58.00688 11.80528 37953 ft 434 kts 327°
2026-05-05 18:23 58.06081 11.75391 37948 ft 434 kts 327°
2026-05-05 18:24 58.11437 11.70278 37943 ft 434 kts 326°
2026-05-05 18:24 58.16955 11.65515 37834 ft 441 kts 334°
2026-05-05 18:24 58.19910 11.63834 37478 ft 446 kts 339°
2026-05-05 18:25 58.22982 11.62646 36746 ft 454 kts 343°
2026-05-05 18:25 58.24035 11.62320 36487 ft 455 kts 343°
2026-05-05 18:25 58.29203 11.60670 35454 ft 451 kts 342°
2026-05-05 18:25 58.32296 11.59673 34738 ft 452 kts 342°
2026-05-05 18:26 58.35406 11.58673 34015 ft 452 kts 342°
2026-05-05 18:26 58.38509 11.57679 33200 ft 451 kts 342°
2026-05-05 18:26 58.41605 11.56688 32440 ft 449 kts 342°
2026-05-05 18:26 58.44696 11.55697 31649 ft 448 kts 342°
2026-05-05 18:27 58.47733 11.54721 30861 ft 448 kts 342°
2026-05-05 18:27 58.50809 11.53732 30221 ft 444 kts 342°
2026-05-05 18:27 58.53832 11.52765 29644 ft 438 kts 341°
2026-05-05 18:27 58.56816 11.51807 29074 ft 431 kts 341°
2026-05-05 18:28 58.61686 11.50234 28111 ft 422 kts 341°
2026-05-05 18:28 58.64564 11.49300 27611 ft 418 kts 341°
2026-05-05 18:28 58.67411 11.48373 27083 ft 413 kts 341°
2026-05-05 18:29 58.70232 11.47455 26541 ft 408 kts 341°
2026-05-05 18:29 58.73025 11.46545 26010 ft 403 kts 341°
2026-05-05 18:29 58.75776 11.45645 25472 ft 399 kts 340°
2026-05-05 18:29 58.78505 11.44751 24953 ft 394 kts 340°
2026-05-05 18:30 58.81204 11.43864 24420 ft 391 kts 340°
2026-05-05 18:30 58.83842 11.42997 23905 ft 388 kts 340°
2026-05-05 18:30 58.86491 11.42124 23362 ft 385 kts 340°
2026-05-05 18:30 58.89120 11.41258 22817 ft 380 kts 340°
2026-05-05 18:31 58.91709 11.40407 22317 ft 375 kts 340°
2026-05-05 18:31 58.94269 11.39563 21807 ft 370 kts 340°
2026-05-05 18:31 58.96795 11.38729 21304 ft 366 kts 340°
2026-05-05 18:31 58.99293 11.37903 20812 ft 361 kts 339°
2026-05-05 18:32 59.01752 11.37088 20326 ft 357 kts 339°
2026-05-05 18:32 59.04189 11.36277 19832 ft 353 kts 339°
2026-05-05 18:32 59.06607 11.35472 19358 ft 350 kts 339°
2026-05-05 18:32 59.08997 11.34673 18877 ft 347 kts 339°
2026-05-05 18:33 59.11353 11.33892 18607 ft 336 kts 339°
2026-05-05 18:33 59.13609 11.33154 18499 ft 322 kts 338°
2026-05-05 18:33 59.15782 11.32439 18385 ft 310 kts 338°
2026-05-05 18:33 59.17853 11.31746 18146 ft 303 kts 337°
2026-05-05 18:34 59.19966 11.31210 17877 ft 309 kts 341°
2026-05-05 18:34 59.22105 11.30757 17603 ft 308 kts 342°
2026-05-05 18:34 59.24229 11.30313 17246 ft 306 kts 342°
2026-05-05 18:34 59.26338 11.29873 16845 ft 304 kts 342°
2026-05-05 18:35 59.28433 11.29435 16436 ft 301 kts 343°
2026-05-05 18:35 59.30515 11.28999 16014 ft 299 kts 344°
2026-05-05 18:35 59.32586 11.28563 15601 ft 298 kts 344°
2026-05-05 18:35 59.34649 11.28128 15117 ft 299 kts 345°
2026-05-05 18:36 59.36709 11.27695 14672 ft 297 kts 346°
2026-05-05 18:36 59.38747 11.27269 14361 ft 292 kts 346°
2026-05-05 18:36 59.40722 11.26861 14109 ft 286 kts 346°
2026-05-05 18:36 59.42712 11.26444 13869 ft 288 kts 347°
2026-05-05 18:37 59.44703 11.26026 13610 ft 286 kts 347°
2026-05-05 18:37 59.46676 11.25602 13333 ft 285 kts 347°
2026-05-05 18:37 59.48646 11.25112 13050 ft 289 kts 346°
2026-05-05 18:37 59.50759 11.24438 12781 ft 324 kts 345°
2026-05-05 18:38 59.53013 11.23693 12503 ft 329 kts 346°
2026-05-05 18:38 59.55250 11.22980 12227 ft 327 kts 346°
2026-05-05 18:38 59.57492 11.22282 11960 ft 326 kts 346°
2026-05-05 18:38 59.59736 11.21589 11706 ft 326 kts 347°
2026-05-05 18:39 59.61868 11.20931 11443 ft 325 kts 347°
2026-05-05 18:39 59.64096 11.20244 11176 ft 324 kts 347°
2026-05-05 18:39 59.66326 11.19551 10918 ft 324 kts 347°
2026-05-05 18:39 59.68513 11.18764 10657 ft 321 kts 341°
2026-05-05 18:40 59.70650 11.17442 10396 ft 321 kts 339°
2026-05-05 18:40 59.72738 11.16055 10286 ft 312 kts 338°
2026-05-05 18:40 59.74752 11.14688 10166 ft 299 kts 338°
2026-05-05 18:40 59.76690 11.13427 10039 ft 287 kts 339°
2026-05-05 18:41 59.78518 11.12086 9853 ft 274 kts 327°
2026-05-05 18:41 59.79939 11.09664 9720 ft 268 kts 313°
2026-05-05 18:41 59.81493 11.07582 9192 ft 274 kts 335°
2026-05-05 18:41 59.83330 11.06440 8522 ft 277 kts 343°
2026-05-05 18:42 59.85202 11.05548 7908 ft 276 kts 343°
2026-05-05 18:42 59.87032 11.04598 7521 ft 265 kts 342°
2026-05-05 18:42 59.88756 11.03618 7352 ft 248 kts 340°
2026-05-05 18:42 59.90321 11.02622 7196 ft 229 kts 339°
2026-05-05 18:43 59.91775 11.01645 7036 ft 214 kts 338°
2026-05-05 18:43 59.93139 11.00710 6869 ft 201 kts 338°
2026-05-05 18:43 59.94417 10.99831 6700 ft 188 kts 338°
2026-05-05 18:43 59.95593 10.99025 6615 ft 170 kts 338°
2026-05-05 18:44 59.96731 10.98239 6483 ft 188 kts 338°
2026-05-05 18:44 59.98020 10.97337 6336 ft 199 kts 338°
2026-05-05 18:44 59.99318 10.96399 6179 ft 197 kts 328°
2026-05-05 18:44 60.00220 10.94445 6007 ft 193 kts 292°
2026-05-05 18:45 60.00319 10.91799 5859 ft 195 kts 258°
2026-05-05 18:45 59.99945 10.89202 5706 ft 194 kts 255°
2026-05-05 18:45 59.99555 10.86618 5622 ft 193 kts 255°
2026-05-05 18:45 59.99172 10.84084 5567 ft 194 kts 255°
2026-05-05 18:46 59.98780 10.81500 5529 ft 193 kts 255°
2026-05-05 18:46 59.98389 10.78934 5504 ft 194 kts 255°
2026-05-05 18:46 59.97993 10.76357 5475 ft 194 kts 253°
2026-05-05 18:46 59.97207 10.74177 5447 ft 199 kts 218°
2026-05-05 18:47 59.95882 10.73370 5418 ft 206 kts 181°
2026-05-05 18:47 59.94527 10.74318 5399 ft 212 kts 143°
2026-05-05 18:47 59.93583 10.76572 5387 ft 213 kts 125°
2026-05-05 18:47 59.92749 10.79013 5352 ft 213 kts 124°
2026-05-05 18:48 59.92002 10.81562 5318 ft 214 kts 110°
2026-05-05 18:48 59.91860 10.84472 5304 ft 212 kts 84°
2026-05-05 18:48 59.92055 10.87363 5273 ft 209 kts 70°
2026-05-05 18:48 59.92688 10.89944 5140 ft 206 kts 46°
2026-05-05 18:49 59.93723 10.91834 5004 ft 204 kts 36°
2026-05-05 18:49 59.94849 10.93528 4856 ft 202 kts 32°
2026-05-05 18:49 59.96002 10.95145 4731 ft 201 kts 32°
2026-05-05 18:49 59.97145 10.96746 4603 ft 200 kts 32°
2026-05-05 18:50 59.98286 10.98345 4497 ft 201 kts 32°
2026-05-05 18:50 59.99443 10.99886 4387 ft 199 kts 26°
2026-05-05 18:50 60.00703 11.01013 4274 ft 198 kts 17°
2026-05-05 18:50 60.02011 11.01856 4013 ft 196 kts 12°
2026-05-05 18:51 60.03313 11.02594 3726 ft 192 kts 12°
2026-05-05 18:51 60.04542 11.03304 3454 ft 175 kts 12°
2026-05-05 18:51 60.05658 11.03940 3225 ft 159 kts 12°
2026-05-05 18:51 60.06672 11.04525 3025 ft 143 kts 11°
2026-05-05 18:52 60.07586 11.05046 2824 ft 131 kts 11°
2026-05-05 18:52 60.08481 11.05554 2634 ft 133 kts 11°
2026-05-05 18:52 60.09369 11.06066 2463 ft 132 kts 11°
2026-05-05 18:52 60.10242 11.06566 2286 ft 132 kts 11°
2026-05-05 18:53 60.11126 11.07074 2097 ft 132 kts 11°
2026-05-05 18:53 60.12006 11.07579 1910 ft 131 kts 11°
2026-05-05 18:53 60.12882 11.08085 1732 ft 131 kts 11°
2026-05-05 18:53 60.13771 11.08584 1543 ft 133 kts 11°
2026-05-05 18:54 60.14663 11.09102 1347 ft 134 kts 12°
2026-05-05 18:54 60.15553 11.09606 1074 ft 132 kts 12°
2026-05-05 18:54 60.16428 11.10095 902 ft 131 kts 13°
2026-05-05 18:54 60.17294 11.10612 740 ft 131 kts 14°
2026-05-05 18:55 60.18151 11.11094 681 ft 115 kts 17°
2026-05-05 18:55 60.18784 11.11469 683 ft 68 kts 15°
2026-05-05 18:55 60.19134 11.11670 684 ft 49 kts 15°
2026-05-05 18:55 60.19283 11.11695 682 ft 8 kts 343°
2026-05-05 18:56 60.19345 11.11644 685 ft 11 kts 322°
2026-05-05 18:56 60.19356 11.11618 684 ft 3 kts 312°
2026-05-05 18:56 60.19373 11.11566 680 ft 6 kts 293°
2026-05-05 18:56 60.19388 11.11464 686 ft 9 kts 283°
2026-05-05 18:57 60.19395 11.11418 681 ft 3 kts 286°
2026-05-05 18:57 60.19400 11.11382 684 ft 0 kts 286°
2026-05-05 18:57 60.19403 11.11359 684 ft 4 kts 286°
2026-05-05 18:57 60.19414 11.11285 684 ft 7 kts 285°
2026-05-05 18:58 60.19430 11.11167 684 ft 10 kts 285°
2026-05-05 18:58 60.19453 11.11010 681 ft 13 kts 285°
2026-05-05 18:58 60.19481 11.10818 683 ft 16 kts 287°
2026-05-05 18:58 60.19507 11.10641 682 ft 8 kts 286°
2026-05-05 18:59 60.19518 11.10547 684 ft 2 kts 272°
2026-05-05 18:59 60.19505 11.10512 677 ft 5 kts 211°
2026-05-05 18:59 60.19483 11.10500 683 ft 1 kts 196°
2026-05-05 18:59 60.19459 11.10486 680 ft 6 kts 194°
2026-05-05 19:00 60.19437 11.10475 682 ft 2 kts 193°
2026-05-05 19:00 60.19429 11.10471 681 ft 0 kts 193°
2026-05-05 19:00 60.19428 11.10471 681 ft 0 kts 194°